GW6204 Weather Reports


Display with metric or nautical units.
time (UTC)temp
F
wind
direction
speed
MPH
gust
MPH
rain 1hr
in
rain 24hr
in
rain mn
in
humidity
%
barometer
mb
20260504191711 82 119 9.0 13.0 0.00 0.00 0.00 54 1015.0
20260504191210 82 52 7.0 9.0 0.00 0.00 0.00 53 1015.0
20260504190707 82 106 8.0 12.0 0.00 0.00 0.00 55 1015.0
20260504190209 82 121 6.0 9.0 0.00 0.00 0.00 53 1015.0
20260504185707 82 110 5.0 7.0 0.00 0.00 0.00 55 1015.0
20260504185207 81 108 8.0 11.0 0.00 0.00 0.00 53 1015.0
20260504184710 82 53 5.0 8.0 0.00 0.00 0.00 52 1015.0
20260504184211 82 69 6.0 8.0 0.00 0.00 0.00 53 1015.0
20260504183707 82 40 7.0 9.0 0.00 0.00 0.00 52 1016.0
20260504183210 82 104 7.0 15.0 0.00 0.00 0.00 52 1016.0
20260504182708 82 25 6.0 9.0 0.00 0.00 0.00 52 1015.0
20260504182211 83 42 4.0 8.0 0.00 0.00 0.00 51 1016.0
20260504181708 82 122 1.0 3.0 0.00 0.00 0.00 50 1016.0
20260504181211 82 124 4.0 7.0 0.00 0.00 0.00 52 1016.0
20260504180707 82 95 9.0 14.0 0.00 0.00 0.00 53 1016.0
20260504180208 81 76 7.0 11.0 0.00 0.00 0.00 53 1016.0
20260504175707 80 58 8.0 13.0 0.00 0.00 0.00 53 1016.0
20260504175208 81 68 8.0 13.0 0.00 0.00 0.00 54 1016.0
20260504174709 81 70 7.0 9.0 0.00 0.00 0.00 55 1016.0
20260504174219 80 69 7.0 9.0 0.00 0.00 0.00 53 1016.0
20260504173709 80 67 9.0 16.0 0.00 0.00 0.00 53 1016.0
20260504173211 80 54 5.0 8.0 0.00 0.00 0.00 53 1016.0
20260504172709 80 57 7.0 12.0 0.00 0.00 0.00 54 1016.0
20260504172209 81 84 11.0 13.0 0.00 0.00 0.00 53 1016.0
20260504171708 81 81 11.0 13.0 0.00 0.00 0.00 55 1016.0
20260504171208 81 81 11.0 13.0 0.00 0.00 0.00 55 1017.0
20260504170708 82 81 11.0 13.0 0.00 0.00 0.00 53 1017.0
20260504170207 81 85 11.0 14.0 0.00 0.00 0.00 53 1017.0
20260504160207 80 9 7.0 12.0 0.00 0.00 0.00 51 1017.0
20260504150706 78 26 11.0 15.0 0.00 0.00 0.00 56 1018.0
20260504150212 78 40 14.0 28.0 0.00 0.00 0.00 56 1018.0
20260504141209 76 39 11.0 15.0 0.00 0.00 0.00 64 1017.0
20260504140711 75 38 10.0 13.0 0.00 0.00 0.00 65 1017.0
20260504140211 76 41 9.0 14.0 0.00 0.00 0.00 64 1017.0
20260504130708 72 35 7.0 9.0 0.00 0.00 0.00 70 1017.0
20260504130210 72 57 6.0 9.0 0.00 0.00 0.00 70 1017.0
20260504120208 66 65 3.0 5.0 0.00 0.00 0.00 79 1017.0
20260504110707 63 21 3.0 4.0 0.00 0.00 0.00 85 1016.0
20260504110209 63 18 3.0 4.0 0.00 0.00 0.00 85 1016.0
20260504100207 63 26 3.0 3.0 0.00 0.00 0.00 85 1015.0
20260504081711 66 182 1.0 1.0 0.00 0.00 0.00 82 1015.0
20260504081210 66 15 2.0 3.0 0.00 0.00 0.00 82 1015.0
20260504080708 66 28 1.0 2.0 0.00 0.00 0.00 82 1015.0
20260504080207 66 23 0.0 0.0 0.00 0.00 0.00 82 1015.0
20260504070207 66 319 1.0 2.0 0.00 0.00 0.00 83 1016.0
20260504060210 66 14 1.0 2.0 0.00 0.00 0.00 81 1016.0
20260504050706 67 49 3.0 4.0 0.00 0.00 0.00 82 1016.0
20260504050209 67 46 2.0 4.0 0.00 0.00 0.00 82 1016.0
20260504045707 67 45 3.0 4.0 0.00 0.00 0.00 82 1016.0
20260504045208 67 34 3.0 4.0 0.00 0.00 0.00 82 1017.0
20260504044707 67 40 2.0 3.0 0.00 0.00 0.00 81 1017.0
20260504044207 67 28 2.0 3.0 0.00 0.00 0.00 81 1017.0
20260504043707 67 24 2.0 4.0 0.00 0.00 0.00 81 1017.0
20260504043207 68 32 2.0 4.0 0.00 0.00 0.00 81 1017.0
20260504042706 68 335 0.0 1.0 0.00 0.00 0.00 80 1017.0
20260504042208 68 234 0.0 0.0 0.00 0.00 0.00 80 1017.0
20260504041709 68 42 0.0 1.0 0.00 0.00 0.00 80 1017.0
20260504041206 68 359 1.0 2.0 0.00 0.00 0.00 79 1017.0
20260504040706 68 13 2.0 3.0 0.00 0.00 0.00 79 1017.0
20260504040207 68 16 1.0 2.0 0.00 0.00 0.00 79 1017.0
20260504035706 68 22 2.0 2.0 0.00 0.00 0.04 79 1017.0
20260504035206 68 26 1.0 2.0 0.00 0.00 0.04 79 1017.0
20260504034706 68 27 2.0 2.0 0.00 0.00 0.04 78 1017.0
20260504034206 69 42 2.0 3.0 0.00 0.00 0.04 79 1017.0
20260504033706 69 29 2.0 4.0 0.00 0.00 0.04 78 1017.0
20260504033206 69 47 2.0 3.0 0.00 0.00 0.04 78 1017.0
20260504032706 69 49 3.0 3.0 0.00 0.00 0.04 78 1017.0
20260504032208 69 49 2.0 4.0 0.00 0.00 0.04 78 1017.0
20260504031224 69 70 2.0 3.0 0.00 0.00 0.04 78 1017.0
20260504030706 69 47 3.0 4.0 0.00 0.00 0.04 78 1017.0
20260504030209 70 68 3.0 4.0 0.00 0.00 0.04 78 1017.0
20260504025707 70 51 3.0 4.0 0.00 0.00 0.04 77 1017.0
20260504025206 70 42 3.0 4.0 0.00 0.00 0.04 77 1017.0
20260504024707 70 79 4.0 6.0 0.00 0.00 0.04 77 1017.0
20260504024206 70 60 4.0 6.0 0.00 0.00 0.04 77 1017.0
20260504023706 70 56 2.0 3.0 0.00 0.00 0.04 77 1017.0
20260504023207 70 75 4.0 5.0 0.00 0.00 0.04 77 1017.0
20260504022706 70 58 4.0 5.0 0.00 0.00 0.04 76 1017.0
20260504022208 70 54 3.0 4.0 0.00 0.00 0.04 76 1017.0
20260504021706 71 68 4.0 7.0 0.00 0.00 0.04 76 1017.0
20260504021207 71 79 6.0 8.0 0.00 0.00 0.04 76 1017.0
20260504020706 71 75 7.0 8.0 0.00 0.00 0.04 75 1017.0
20260504020207 71 77 6.0 7.0 0.00 0.00 0.04 76 1017.0
20260504015706 71 78 7.0 8.0 0.00 0.00 0.04 76 1016.0
20260504015207 71 77 6.0 8.0 0.00 0.00 0.04 76 1016.0
20260504014707 71 81 6.0 7.0 0.00 0.00 0.04 75 1017.0
20260504014206 71 76 6.0 7.0 0.00 0.00 0.04 75 1016.0
20260504013706 71 77 7.0 8.0 0.00 0.00 0.04 75 1016.0
20260504013207 71 74 4.0 6.0 0.00 0.00 0.04 75 1016.0
20260504012707 71 68 6.0 7.0 0.00 0.00 0.04 75 1016.0
20260504012206 72 67 5.0 7.0 0.00 0.00 0.04 75 1016.0
20260504011706 72 61 5.0 6.0 0.00 0.00 0.04 75 1016.0
20260504011207 72 85 4.0 7.0 0.00 0.00 0.04 75 1016.0
20260504010706 72 76 5.0 6.0 0.00 0.00 0.04 75 1016.0
20260504010208 72 82 4.0 5.0 0.00 0.00 0.04 75 1016.0
20260504005707 72 63 5.0 8.0 0.00 0.00 0.04 75 1016.0
20260504005206 72 57 4.0 5.0 0.00 0.00 0.04 74 1016.0
20260504004706 73 53 4.0 8.0 0.00 0.00 0.04 74 1016.0
20260504004206 73 56 6.0 8.0 0.00 0.00 0.04 74 1016.0
20260504003707 73 41 6.0 9.0 0.00 0.00 0.04 73 1016.0
20260504003207 73 40 6.0 8.0 0.00 0.00 0.04 74 1016.0
20260504002706 73 40 7.0 9.0 0.00 0.00 0.04 73 1015.0
20260504002206 74 18 5.0 8.0 0.00 0.00 0.04 73 1015.0
20260504001707 74 0 7.0 12.0 0.00 0.00 0.04 72 1015.0
20260504001206 74 345 9.0 15.0 0.00 0.00 0.04 72 1015.0
20260504000707 74 0 6.0 9.0 0.00 0.00 0.04 72 1015.0
20260504000206 74 0 9.0 18.0 0.00 0.00 0.04 71 1015.0
20260503235706 75 48 7.0 13.0 0.00 0.00 0.04 71 1015.0
20260503235206 75 57 6.0 8.0 0.00 0.00 0.04 69 1015.0
20260503234707 75 70 8.0 10.0 0.00 0.00 0.04 69 1015.0
20260503234210 75 63 6.0 9.0 0.00 0.00 0.04 69 1015.0
20260503233706 75 93 13.0 19.0 0.00 0.00 0.04 68 1015.0
20260503233207 76 89 12.0 18.0 0.00 0.00 0.04 68 1015.0
20260503232707 76 98 13.0 16.0 0.00 0.00 0.04 67 1015.0
20260503232207 76 90 12.0 17.0 0.00 0.00 0.04 67 1015.0
20260503231706 76 96 11.0 17.0 0.00 0.00 0.04 67 1015.0
20260503231209 76 99 17.0 23.0 0.00 0.00 0.04 66 1015.0
20260503230706 76 97 13.0 22.0 0.00 0.00 0.04 67 1015.0
20260503230206 77 100 13.0 19.0 0.00 0.00 0.04 67 1015.0
20260503225707 77 109 12.0 17.0 0.00 0.00 0.04 67 1015.0
20260503225206 78 106 9.0 11.0 0.00 0.00 0.04 66 1015.0
20260503224706 77 88 9.0 13.0 0.00 0.00 0.04 65 1015.0
20260503224206 77 74 9.0 11.0 0.00 0.00 0.04 66 1015.0
20260503223706 77 66 10.0 13.0 0.00 0.00 0.04 66 1015.0
20260503223206 77 69 9.0 13.0 0.00 0.00 0.04 65 1015.0
20260503222706 77 76 7.0 9.0 0.00 0.00 0.04 65 1015.0
20260503222206 77 86 8.0 10.0 0.00 0.00 0.04 65 1015.0
20260503221706 77 92 8.0 10.0 0.00 0.00 0.04 65 1015.0
20260503221206 77 78 8.0 14.0 0.00 0.00 0.04 67 1015.0
20260503220706 77 59 7.0 11.0 0.00 0.00 0.04 66 1015.0
20260503220207 78 54 6.0 9.0 0.00 0.00 0.04 65 1015.0
20260503215706 78 78 9.0 12.0 0.00 0.00 0.04 65 1015.0
20260503215207 78 105 9.0 13.0 0.00 0.00 0.04 65 1015.0
20260503214708 78 124 11.0 16.0 0.00 0.00 0.04 65 1015.0
20260503214206 78 134 11.0 18.0 0.00 0.00 0.04 64 1015.0
20260503213706 78 96 12.0 23.0 0.00 0.00 0.04 66 1015.0
20260503213207 78 77 10.0 14.0 0.00 0.00 0.04 65 1015.0
20260503212706 78 73 7.0 9.0 0.00 0.00 0.04 64 1015.0
20260503212210 78 76 5.0 9.0 0.00 0.00 0.04 63 1015.0
20260503211707 77 64 9.0 15.0 0.00 0.00 0.04 64 1015.0
20260503211207 77 67 10.0 15.0 0.00 0.00 0.04 66 1015.0
20260503210706 77 67 10.0 15.0 0.00 0.00 0.04 66 1015.0
20260503210206 78 42 9.0 18.0 0.00 0.00 0.04 65 1015.0
20260503205707 78 34 6.0 8.0 0.00 0.00 0.04 62 1016.0
20260503205206 78 32 8.0 11.0 0.00 0.00 0.04 63 1015.0
20260503204706 78 29 9.0 14.0 0.00 0.00 0.04 64 1015.0
20260503204207 79 47 8.0 11.0 0.00 0.00 0.04 63 1015.0
20260503203706 79 11 9.0 14.0 0.00 0.00 0.04 62 1016.0
20260503203206 78 15 11.0 16.0 0.00 0.00 0.04 62 1016.0
20260503202706 78 13 12.0 17.0 0.00 0.00 0.04 63 1015.0
20260503202207 78 9 10.0 16.0 0.00 0.00 0.04 63 1015.0
20260503201706 78 10 10.0 15.0 0.00 0.00 0.04 62 1016.0
20260503201207 78 6 10.0 15.0 0.00 0.00 0.04 62 1016.0
20260503200707 78 6 10.0 13.0 0.00 0.00 0.04 64 1015.0
20260503200209 78 7 13.0 18.0 0.00 0.00 0.04 63 1016.0
20260503195706 78 8 11.0 15.0 0.00 0.00 0.04 63 1016.0
20260503195206 78 6 11.0 17.0 0.00 0.00 0.04 64 1016.0
20260503194706 78 7 11.0 15.0 0.00 0.00 0.04 64 1016.0
20260503194207 78 72 6.0 12.0 0.00 0.00 0.04 62 1016.0
20260503193706 78 93 14.0 18.0 0.00 0.00 0.04 64 1016.0
20260503193207 78 94 13.0 18.0 0.00 0.00 0.04 64 1016.0
20260503192707 78 93 14.0 18.0 0.00 0.00 0.04 63 1017.0
20260503192206 77 92 13.0 17.0 0.00 0.00 0.04 64 1017.0